Location: Proctor
(47.8934°N, 114.3048°W)
Time: 17:36:19
(UTC+00:00)

Transit 4A - Pass Details

Date: 15 May 2025
Orbit: 866 x 975 km, 66.8° (Epoch: 13 June)

Event Time Altitude Azimuth Distance (km) Brightness Sun altitude
Rises 03:42:49 0° 219° (SW) 3,660 11.0 -5.6°
Reaches altitude 10° 03:45:24 10° 221° (SW) 2,713 10.4 -6.0°
Maximum altitude 03:51:45 74° 307° (NW) 1,003 8.3 -6.8°
Drops below altitude 10° 03:58:02 10° 32° (NNE) 2,680 10.4 -7.7°
Sets 04:00:34 0° 35° (NE) 3,613 11.1 -8.0°
